Volver al catálogo

SL-16 DEB

ActivoLEO
NORAD 39719·DEBRIS·🇷🇺 Russia

Lanzado Dec 25, 1992 desde Baikonur Cosmodrome

Loading…

Próximos Pases (próximas 24 horas)

TLE

EnvejeciendoSource: Space-Track

Época: Sep 10, 2026, 04:33 UTC

1 39719U 92093KK  26253.18987563  .00000039  00000-0  57209-4 0  9996
2 39719  71.2969  73.2722 0095596 112.5640   4.0370 13.96282833631707

Sigue SL-16 DEB en tiempo real con AllMySat

Download on the App Store